Regional Weather Roundup
Issued by NWS

Home | Current Version | Previous Version | Text Only | Print | Product List | Glossary On
Versions: 1 2 3 4 5 6 7 8 9 10 11 12 13 14 15 16 17 18 19 20 21 22 23 24 25 26 27 28 29 30 31 32 33 34 35 36 37 38 39 40 41 42 43 44 45 46 47 48 49 50
000
ASUS43 KTOP 042359
RWRKS

WEATHER ROUNDUP FOR KANSAS
NATIONAL WEATHER SERVICE GOODLAND KS
700 PM CDT WED MAY 04 2016

NOTE:  "FAIR" INDICATES FEW OR NO CLOUDS BELOW 12,000 FEET WITH NO
SIGNIFICANT WEATHER AND/OR OBSTRUCTIONS TO VISIBILITY.

KSZ001>006-013>018-027>032-041>047-050100-
NORTHWEST KANSAS

CITY           SKY/WX    TMP DP  RH WIND       PRES   REMARKS
GOODLAND       SUNNY     73  44  35 NE8       30.11S
6HR MIN TEMP:  71; 6HR MAX TEMP:  77;

HAYS           SUNNY     72  41  33 N6        30.06F
HILL CITY      SUNNY     76  39  26 NE8       30.07F
6HR MIN TEMP:  72; 6HR MAX TEMP:  78;

RUSSELL        SUNNY     72  37  28 N8        30.04F
6HR MIN TEMP:  70; 6HR MAX TEMP:  74;

$$

KSZ061>065-074>080-084>089-050100-
SOUTHWEST KANSAS

CITY           SKY/WX    TMP DP  RH WIND       PRES   REMARKS
DODGE CITY     SUNNY     73  42  32 N9        30.08S
6HR MIN TEMP:  72; 6HR MAX TEMP:  76;

ELKHART          N/A     77  44  30 NE5         N/A
GARDEN CITY    SUNNY     75  41  29 N8        30.08F
6HR MIN TEMP:  73; 6HR MAX TEMP:  78;

GREAT BEND     SUNNY     70  43  37 N14       30.05F
LIBERAL        SUNNY     75  41  29 N3        30.10F
$$

KSZ066>073-081>083-090>101-050100-
SOUTHEAST KANSAS

CITY           SKY/WX    TMP DP  RH WIND       PRES   REMARKS
CHANUTE        SUNNY     70  35  27 N12       29.98S
6HR MIN TEMP:  70; 6HR MAX TEMP:  74;

COFFEYVILLE    SUNNY     71  39  31 N10       29.98S
6HR MIN TEMP:  71; 6HR MAX TEMP:  74;

HUTCHINSON     SUNNY     72  33  24 N10       30.03F
6HR MIN TEMP:  72; 6HR MAX TEMP:  76;

MEDICINE LODGE   N/A     74  41  30 N12       30.03S
NEWTON         SUNNY     68  34  28 N13       30.05S
PARSONS        SUNNY     71  41  33 N8        29.99S
6HR MIN TEMP:  71; 6HR MAX TEMP:  74;

WICHITA INTL   SUNNY     72  32  23 N14       30.02S
6HR MIN TEMP:  72; 6HR MAX TEMP:  76; 6HR PCP: TRACE;

WICHITA JABRA  SUNNY     70  37  29 N10       30.01F
6HR MIN TEMP:  70; 6HR MAX TEMP:  74;

WINFIELD       SUNNY     71  39  31 N10       30.40R
6HR MIN TEMP:  71; 6HR MAX TEMP:  76;

$$

KSZ007>012-019>026-033>040-048>060-102>105-050100-
NORTHEAST KANSAS

CITY           SKY/WX    TMP DP  RH WIND       PRES   REMARKS
CONCORDIA      SUNNY     70  33  25 N10       30.03F
6HR MIN TEMP:  67; 6HR MAX TEMP:  72;

EMPORIA        SUNNY     70  34  26 N8G20     29.99F
6HR MIN TEMP:  68; 6HR MAX TEMP:  72;

LAWRENCE       SUNNY     68  37  32 N12       29.98F
6HR MIN TEMP:  68; 6HR MAX TEMP:  71;

MANHATTAN      SUNNY     71  33  24 N8        30.00F
6HR MIN TEMP:  69; 6HR MAX TEMP:  73;

OLATHE IND     SUNNY     67  37  33 NW17      29.98F
6HR MIN TEMP:  67; 6HR MAX TEMP:  70;

OLATHE EXE     SUNNY     67  34  29 N15       29.97F
6HR MIN TEMP:  66; 6HR MAX TEMP:  70;

SALINA         SUNNY     72  37  28 N14       30.03F
6HR MIN TEMP:  71; 6HR MAX TEMP:  75;

TOPEKA BILLARD SUNNY     69  37  30 NW10G20   29.99S
6HR MIN TEMP:  68; 6HR MAX TEMP:  72;

TOPEKA FORBES  SUNNY     70  37  29 N9        29.99S
6HR MIN TEMP:  69; 6HR MAX TEMP:  73;

$$



USA.gov is the U.S. government's official web portal to all federal, state and local government web resources and services.